Regional Weather Roundup
Issued by NWS

Home | Current Version | Previous Version | Graphics & Text | Print | Product List | Glossary On
Versions: 1 2 3 4 5 6 7 8 9 10 11 12 13 14 15 16 17 18 19 20 21 22 23 24 25 26 27 28 29 30 31 32 33 34 35 36 37 38 39 40 41 42 43 44 45 46 47 48 49 50
000
ASUS43 KMKX 182259
RWRWI

WISCONSIN REGIONAL WEATHER ROUNDUP
NATIONAL WEATHER SERVICE MILWAUKEE/SULLIVAN WI
500 PM CST THU JAN 18 2018

NOTE: "FAIR" INDICATES FEW OR NO CLOUDS BELOW 12,000 FEET WITH NO
SIGNIFICANT WEATHER AND/OR OBSTRUCTIONS TO VISIBILITY.

WIZ001-002-006>008-014>016-023>028-190000-
NORTHWEST WISCONSIN

CITY           SKY/WX    TMP DP  RH WIND       PRES   REMARKS
SUPERIOR ARPT  FAIR      36  26  68 W3        29.74R
ASHLAND        FAIR      31  24  75 SW3       29.74S
HAYWARD        FAIR      33  23  66 S5        29.74S WCI  29
SIREN          FAIR      35  23  63 W3        29.77R
CUMBERLAND     FAIR      32  21  64 SW6       29.75S WCI  26
RICE LAKE      FAIR      32  22  65 S3        29.77F
CHETEK         FAIR      34  23  64 CALM      29.77S
LADYSMITH      FAIR      34  22  63 SW3       29.77S
EAU CLAIRE     NOT AVBL
MENOMONIE      FAIR      35  24  62 S6        29.79S WCI  30
NEW RICHMOND   FAIR      35  22  59 S6        29.79R WCI  30
OSCEOLA        FAIR      36  24  62 SW5       29.81R WCI  32
$$

WIZ003>005-009-010-017-018-190000-
NORTH CENTRAL WISCONSIN

CITY           SKY/WX    TMP DP  RH WIND       PRES   REMARKS
MANITOWISH WTR FAIR      29  22  75 W3        29.71S
ARBOR VITAE    FAIR      32  26  78 CALM      29.71R
WOODRUFF       FAIR      32  26  78 CALM      29.71R
RHINELANDER    FAIR      30  22  72 W7        29.73R WCI  23
EAGLE RIVER    FAIR      28  23  80 CALM      29.71R
LAND O LAKES   CLOUDY    32  25  75 CALM      29.72R
PHILLIPS       FAIR      31  22  69 SW5       29.73R WCI  27
TOMAHAWK       FAIR      33  22  65 CALM      29.74R
MEDFORD        FAIR      32  20  63 W6        29.76R WCI  26
MERRILL        FAIR      31  21  65 SW6       29.76R WCI  26
$$

WIZ029-030-035-036-043>047-190000-
CENTRAL WISCONSIN

CITY           SKY/WX    TMP DP  RH WIND       PRES   REMARKS
WAUSAU         FAIR      32  20  61 SW7       29.76R WCI  26
MOSINEE        PTCLDY    32  21  64 W12       29.79R WCI  23
MARSHFIELD     FAIR      32  20  61 W10       29.78R WCI  24
STEVENS POINT  FAIR      33  20  59 SW8       29.79R WCI  26
WAUPACA        FAIR      37  22  53 SW10      29.81R WCI  30
WAUTOMA        FAIR      33  20  58 SW10      29.83R WCI  25
WISC RAPIDS    FAIR      35  19  52 W13       29.82R WCI  26
CAMP DOUGLAS   FAIR      32  22  64 SW9       29.84R WCI  25
$$

WIZ011>013-019>022-031-037>040-048>050-190000-
NORTHEAST WISCONSIN

CITY           SKY/WX    TMP DP  RH WIND       PRES   REMARKS
ANTIGO         FAIR      30  20  65 W10       29.74R WCI  21
SHAWANO        FAIR      36  21  55 SW7       29.77R WCI  30
OCONTO         FAIR      32  21  63 SW7       29.77R WCI  26
STURGEON BAY   FAIR      29  21  72 SW6       29.80R WCI  23
GREEN BAY      FAIR      31  20  63 SW9       29.80R WCI  23
MANITOWOC      FAIR      30  21  69 SW16      29.82  WCI  19
APPLETON       PTCLDY    30  18  59 SW14      29.79S WCI  20
CLINTONVILLE   FAIR      32  19  59 SW7       29.79R WCI  26
OSHKOSH        FAIR      29  20  69 SW10      29.83S WCI  20
$$

WIZ032>034-041-042-053>061-190000-
SOUTHWEST WISCONSIN

CITY           SKY/WX    TMP DP  RH WIND       PRES   REMARKS
LA CROSSE      FAIR      34  23  64 S9        29.87R WCI  27
SPARTA         FAIR      35  23  62 SW5       29.86S WCI  31
VIROQUA        FAIR      30  23  74 SW8       29.86R WCI  23
BOSCOBEL       FAIR      32  20  61 SW7       29.92R WCI  26
PRAIRIE DU CHI FAIR      33  19  57 SW6       29.92S WCI  27
PLATTEVILLE    FAIR      31  22  67 SW13      29.93R WCI  22
$$

WIZ056-057-062-063-064-067-068-190000-
SOUTH CENTRAL WISCONSIN

CITY           SKY/WX    TMP DP  RH WIND       PRES   REMARKS
REEDSBURG      FAIR      32  20  62 SW8       29.87R WCI  24
BARABOO/DELLS  FAIR      31  19  61 SW9       29.87R WCI  23
LONE ROCK      FAIR      31  20  63 SW6       29.91R WCI  25
MINERAL POINT  FAIR      34  21  60 SW10G17   29.91R WCI  26
MADISON        FAIR      30  19  63 SW5       29.91S WCI  25
MIDDLETON      FAIR      32  20  62 SW9       29.90S WCI  24
WATERTOWN      FAIR      28  20  72 SW12      29.89S WCI  17
MONROE         FAIR      30  19  64 SW18      29.92R WCI  18
JANESVILLE     CLEAR     30  19  64 SW12G18   29.95R WCI  21
$$

WIZ051-052-058>065-066-070>072-190000-
SOUTHEAST WISCONSIN

CITY           SKY/WX    TMP DP  RH WIND       PRES   REMARKS
MILWAUKEE      FAIR      32  19  58 SW10      29.92R WCI  24
WAUKESHA       CLEAR     28  18  64 SW13      29.92R WCI  18
MILWAUKEE/TIMM CLEAR     30  16  55 SW14G20   29.90R WCI  20
RACINE         FAIR      30  18  60 SW15G23   29.94R WCI  19
BURLINGTON     FAIR      28  18  66 SW8       29.94R WCI  19
KENOSHA        FAIR      30  17  58 W18G29    29.94R WCI  18
FOND DU LAC    FAIR      29  18  63 SW13      29.85S WCI  19
SHEBOYGAN      FAIR      29  19  66 SW16      29.84R WCI  17
WEST BEND      FAIR      30  19  64 SW8G16    29.87R WCI  23
JUNEAU         FAIR      27  19  71 SW12      29.88S WCI  17
$$

LSZ147-162-190000-
LAKE SUPERIOR

STATION/POSITION TIME  TEMP    WIND        PRES    WAVE
                       AIR SEA DIR/SP/G            HT/PER
                 (UTC) (F)     (DEG/KT/KT) (MB)    (FT/S)
DEVILS ISLAND    2200   34     260/ 12/ 15 1007.2R
SAXON HARBOR     2240   33     230/  3/  5 1007.1S
$$

LMZ867-665-643>646-190000-
LAKE MICHIGAN

STATION/POSITION TIME  TEMP    WIND        PRES    WAVE
                       AIR SEA DIR/SP/G            HT/PER
                 (UTC) (F)     (DEG/KT/KT) (MB)    (FT/S)
NORTHPORT PIER   2240   30     190/  9/ 30 1008.1S
KEWAUNEE LAKESHO 2230   32     240/  7/ 12 1008.2R
SHEBOYGAN LAKESH 2200   33     230/ 14/ 16 1011.1S
PORT WASHINGTON  2240   32     260/  7/ 11 1012.9R
MILWAUKEE LAKESH 2230   32     240/ 16/ 21   N/A
KENOSHA   LAKESH 2200   33     230/ 14/ 23 1013.9
$$

TC  - TEMPERATURE IN CELSIUS
VSB - VISIBILITY IN STATUTE MILES
WCI - WIND CHILL INDEX
HX  - HEAT INDEX




USA.gov is the U.S. government's official web portal to all federal, state and local government web resources and services.